Regional Weather Roundup
Issued by NWS Glasgow, MT

Current Version | Previous Version | Text Only | Print | Product List | Glossary On
Versions: 1 2 3 4 5 6 7 8 9 10 11 12 13 14 15 16 17 18 19 20 21 22 23 24 25 26 27 28 29 30 31 32 33 34 35 36 37 38 39 40 41 42 43 44 45 46 47 48 49 50
000
ASUS45 KGGW 220415
RWRGGW
HOURLY WEATHER ROUNDUP FOR NORTHEAST MONTANA
NATIONAL WEATHER SERVICE GLASGOW MONTANA
1000 PM MDT THU AUG 21 2014

NOTE: "FAIR" INDICATES FEW OR NO CLOUDS BELOW 12,000 FEET WITH NO
SIGNIFICANT WEATHER AND/OR OBSTRUCTIONS TO VISISBILITY.

NORTHEAST MONTANA


CITY           SKY/WX    TMP DP  RH WIND       PRES   REMARKS
GLASGOW        MOCLDY    61  59  93 NE9       30.05R
PLENTYWOOD       N/A     64  54  69 N10         N/A
WOLF POINT     CLOUDY    64  59  83 N7        30.06R
JORDAN           N/A     61  58  90 N5        30.06S
WINNETT          N/A     59  55  87 NE3         N/A
SIDNEY         CLOUDY    66  61  82 NE5       30.02S
GLENDIVE       CLOUDY    61  59  94 N7        30.06R
MALTA            N/A     60  59  96 CALM        N/A

FORT PECK REPORTS


CITY           SKY/WX    TMP DP  RH WIND       PRES   REMARKS
FORT PECK        N/A     62  60  93 NE12        N/A
THE PINES        N/A     61  57  87 NW7         N/A

SOUTHEAST MONTANA


CITY           SKY/WX    TMP DP  RH WIND       PRES   REMARKS
BILLINGS       PTCLDY    57  55  93 NW6       30.12R
MILES CITY     CLOUDY    63  58  83 N10       30.05R
BAKER          LGT RAIN  64  61  90 N7        30.04S
LIVINGSTON     CLOUDY    58  51  78 E8        30.13R

CENTRAL MONTANA


CITY           SKY/WX    TMP DP  RH WIND       PRES   REMARKS
HAVRE          CLOUDY    58  50  75 NE9       30.13S
LEWISTOWN      MOCLDY    54  50  86 SE5       30.13S
GREAT FALLS    CLOUDY    55  49  80 NE17      30.14S
CUT BANK       CLOUDY    52  49  89 NE8       30.19R
HELENA         CLOUDY    56  53  90 CALM      30.11F
BUTTE          LGT RAIN  51  46  83 SE13      30.15S
BOZEMAN        LGT RAIN  55  51  86 SW8       30.14R

WESTERN MONTANA


CITY           SKY/WX    TMP DP  RH WIND       PRES   REMARKS
MISSOULA       CLOUDY    61  51  70 E8        30.05R
KALISPELL      NOT AVBL

NORTH DAKOTA


CITY           SKY/WX    TMP DP  RH WIND       PRES   REMARKS
WILLISTON      CLOUDY    64  58  80 CALM      30.02R
DICKINSON      LGT RAIN  65  60  84 N6        30.01R
MINOT          PTCLDY    63  60  90 NW7       29.98S
BISMARCK       PTCLDY    68  63  84 NE3       29.95F

SOUTHERN SASKATCHEWAN


CITY           SKY/WX    TMP DP  RH WIND       PRES   REMARKS
REGINA         CLOUDY    61  54  77 NE7       30.09R
ESTEVAN        MOCLDY    57  57 100 N3        30.04R
SWIFT CURRENT  LGT RAIN  55  54  94 N13G20    30.14S



USA.gov is the U.S. government's official web portal to all federal, state and local government web resources and services.